Home   Weather   Kingston   Past weeks

Flag for Norfolk Island Past Weather in Kingston, Norfolk Island — Yesterday and Last 2 Weeks

Now
64 °F

Partly sunny.


Feels Like: 64 °F
Forecast: 57 / 65 °F
Wind: 10 mph from Northeast

Location: Norfolk Island Airport

Current Time: Sep 1, 2016 at 10:42:34 AM

Latest Report: Sep 1, 2016 at 10:00 AM


Visibility: N/A

Pressure: 30.30 "Hg

Humidity: 52%

Dew Point: 46 °F

Location of KingstonLocation

Past Weather in Kingston — Graph

°F

Kingston Temperature Yesterday

Maximum temperature yesterday: 66 °F (at 3:00 PM)
Minimum temperature yesterday: 57 °F (at 6:00 AM)
Average temperature yesterday: 61 °F

High & Low Weather Summary for the Past Weeks

 TemperatureHumidityPressure
High70 °F (Aug 25, 12:00 PM)100% (Aug 21, 9:00 PM)30.36 "Hg (Aug 21, 9:00 PM)
Low54 °F (Aug 21, 11:00 PM)46% (Aug 31, 3:00 PM)29.83 "Hg (Aug 25, 1:00 PM)
Average62 °F76%30.11 "Hg
* Reported Aug 17 9:00 AM — Sep 1 9:00 AM, Kingston, Weather by CustomWeather, © 2016

Note: Actual official high and low records may vary slightly from our data, if they occured in-between our weather recording intervals... More about our weather records

Advertising

Kingston Weather History for the Previous 24 Hours

Scroll right to see more
 ConditionsComfort  
Time TempWeatherWind HumidityBarometerVisibility
9:00 AM
Thu, Sep 1
63 °FPartly sunny.7 mph100%30.30 "HgN/A
8:30 AM63 °FOvercast.6 mph59%30.30 "HgN/A
8:00 AM63 °FOvercast.7 mph59%30.30 "HgN/A
7:30 AM61 °FMore clouds than sun.3 mph68%30.30 "HgN/A
7:00 AM61 °FMore clouds than sun.7 mph68%30.27 "HgN/A
6:30 AM61 °FOvercast.2 mph59%30.27 "HgN/A
6:00 AM61 °FOvercast.5 mph59%30.27 "HgN/A
5:30 AM61 °FOvercast.5 mph63%30.27 "HgN/A
5:00 AM61 °FOvercast.6 mph63%30.27 "HgN/A
4:00 AM59 °FOvercast.7 mph72%30.24 "HgN/A
3:30 AM61 °FOvercast.6 mph68%30.27 "HgN/A
3:00 AM59 °FOvercast.7 mph72%30.27 "HgN/A
2:30 AM61 °FCool.6 mph63%30.27 "HgN/A
2:00 AM61 °FCool.7 mph68%30.27 "HgN/A
1:00 AM61 °FRefreshingly cool.7 mph59%30.30 "HgN/A
12:30 AM59 °FOvercast.6 mph59%30.30 "HgN/A
12:00 AM59 °FOvercast.8 mph59%30.30 "HgN/A
11:30 PM
Wed, Aug 31
61 °FRefreshingly cool.8 mph52%30.30 "HgN/A
11:00 PM61 °FRefreshingly cool.8 mph52%30.30 "HgN/A
10:00 PM61 °FMostly cloudy.6 mph68%30.33 "HgN/A
9:30 PM61 °FCool.7 mph63%30.33 "HgN/A
9:00 PM61 °FOvercast.6 mph59%30.33 "HgN/A
8:30 PM61 °FOvercast.7 mph55%30.33 "HgN/A
8:00 PM61 °FRefreshingly cool.7 mph55%30.33 "HgN/A
7:00 PM61 °FOvercast.8 mph55%30.33 "HgN/A
6:00 PM61 °FOvercast.8 mph55%30.30 "HgN/A
5:30 PM61 °FOvercast.10 mph59%30.30 "HgN/A
5:00 PM61 °FMostly cloudy.7 mph63%30.30 "HgN/A
4:30 PM63 °FOvercast.9 mph59%30.30 "HgN/A
4:00 PM63 °FPartly sunny.9 mph56%30.30 "HgN/A
3:30 PM63 °FPartly sunny.9 mph56%30.30 "HgN/A
3:00 PM66 °FPartly sunny.9 mph46%30.27 "HgN/A
2:30 PM64 °FPartly sunny.8 mph52%30.30 "HgN/A
2:00 PM64 °FPartly sunny.9 mph52%30.30 "HgN/A
1:30 PM64 °FMild.8 mph60%30.30 "HgN/A
1:00 PM63 °FPartly sunny.9 mph64%30.30 "HgN/A
12:30 PM64 °FPartly sunny.7 mph60%30.33 "HgN/A
12:00 PM63 °FCloudy.13 mph64%30.33 "HgN/A
11:00 AM63 °FPartly sunny.14 mph68%30.36 "HgN/A
10:30 AM64 °FPartly sunny.12 mph60%30.33 "HgN/A
10:00 AM64 °FPassing clouds.12 mph60%30.36 "HgN/A
Weather by CustomWeather, © 2016

See weather overviewHow to use our weather pages